Regional Weather Roundup
Issued by NWS Goodland, KS

Home | Current Version | Previous Version | Text Only | Print | Product List | Glossary On
Versions: 1 2 3 4 5 6 7 8 9 10 11 12 13 14 15 16 17 18 19 20 21 22 23 24 25 26 27 28 29 30 31 32 33 34 35 36 37 38 39 40 41 42 43 44 45 46 47 48 49 50
000
ASUS43 KGLD 202108
RWRGLD

GOODLAND FORECAST AREA HOURLY WEATHER ROUNDUP
NATIONAL WEATHER SERVICE GOODLAND KS
300 PM MDT FRI OCT 20 2017

...OFFICIAL OBSERVATIONS...

CITY           SKY/WX    TMP DP  RH WIND       PRES   REMARKS
GOODLAND KS    SUNNY     78  39  24 S23G31    29.56F
HILL CITY KS   SUNNY     78  54  43 S30G47    29.61F
IMPERIAL NEB   CLOUDY    77  47  34 S14       29.53F
MCCOOK NEB     CLOUDY    82  50  32 S28G40    29.54F
AKRON CO       SUNNY     77  32  19 SE10      29.57F
BURLINGTON CO  SUNNY     79  40  24 S16G25    29.57F
LIMON CO       SUNNY     76  29  17 S15G22    29.60F
$$

...UNOFFICIAL OBSERVATIONS...

CITY           SKY/WX    TMP DP  RH WIND       PRES   REMARKS
COLBY KS       SUNNY     79  50  36 S23G32    29.59S
LENORA KS        N/A     83  32  16 SW12        N/A
NORTON KS      SUNNY     79  45  29 S26G39    29.60R
SHARON SPRINGS   N/A     80  49  33 SE23G33     N/A
TRENTON NEB      N/A     83  32  16 SW12        N/A
YUMA CO        FAIR      73  16  11 E3        29.55S
$$




USA.gov is the U.S. government's official web portal to all federal, state and local government web resources and services.